Home   Weather   Noumea   Past weeks

Flag for New Caledonia Past Weather in Noumea, New Caledonia, New Caledonia — Yesterday and Last 2 Weeks

Now
75 °F

Passing clouds.


Feels Like: 77 °F
Forecast: 69 / 83 °F
Wind: 5 mph from East

Location: La Tontouta Nlle-Caledonie

Current Time: Dec 6, 2016 at 7:39:52 am

Latest Report: Dec 6, 2016 at 7:00 am


Visibility: N/A

Pressure: 29.98 "Hg

Humidity: 69%

Dew Point: 64 °F

Location of NoumeaLocation

Past Weather in Noumea — Graph

°F

Noumea Temperature Yesterday

Maximum temperature yesterday: 82 °F (at 10:00 am)
Minimum temperature yesterday: 61 °F (at 4:30 am)
Average temperature yesterday: 73 °F

High & Low Weather Summary for the Past Weeks

 TemperatureHumidityPressure
High90 °F (Nov 24, 12:30 pm)100% (Nov 21, 6:00 am)30.01 "Hg (Nov 21, 6:00 am)
Low61 °F (Dec 5, 4:30 am)49% (Nov 24, 11:00 am)29.65 "Hg (Nov 30, 3:00 pm)
Average76 °F78%29.85 "Hg
* Reported Nov 21 6:00 am — Dec 6 6:00 am, Noumea, Weather by CustomWeather, © 2016

Note: Actual official high and low records may vary slightly from our data, if they occured in-between our weather recording intervals... More about our weather records

Advertising

Noumea Weather History for the Previous 24 Hours

Scroll right to see more
 ConditionsComfort  
Time TempWeatherWind HumidityBarometerVisibility
6:00 am
Tue, Dec 6
70 °FSunny.3 mph78%29.98 "Hg10 mi
5:30 am68 °FSunny.1 mph83%29.95 "Hg10 mi
5:00 am68 °FPassing clouds.3 mph83%29.95 "HgN/A
4:30 am68 °FClear.3 mph83%29.95 "Hg10 mi
4:00 am70 °FPassing clouds.5 mph78%29.95 "HgN/A
3:30 am70 °FPassing clouds.1 mph73%29.95 "HgN/A
3:00 am68 °FPassing clouds.1 mph83%29.92 "HgN/A
2:30 am68 °FClear.No wind83%29.92 "Hg10 mi
2:00 am70 °FClear.2 mph78%29.95 "Hg10 mi
1:30 am70 °FClear.3 mph78%29.95 "Hg10 mi
1:00 am70 °FPassing clouds.3 mph78%29.95 "HgN/A
12:30 am72 °FClear.2 mph73%29.98 "Hg10 mi
12:00 am70 °FClear.3 mph78%29.98 "Hg10 mi
11:30 pm
Mon, Dec 5
70 °FClear.3 mph83%30.01 "Hg10 mi
11:00 pm70 °FPassing clouds.5 mph83%30.01 "HgN/A
10:30 pm72 °FClear.3 mph78%30.01 "Hg10 mi
10:00 pm72 °FClear.5 mph78%30.01 "Hg10 mi
9:30 pm72 °FClear.7 mph78%29.98 "Hg10 mi
9:00 pm72 °FClear.6 mph78%29.98 "Hg10 mi
8:30 pm73 °FClear.6 mph74%29.98 "Hg10 mi
8:00 pm73 °FPassing clouds.9 mph78%29.95 "HgN/A
7:30 pm75 °FPassing clouds.14 mph74%29.95 "HgN/A
7:00 pm75 °FPassing clouds.14 mph74%29.92 "HgN/A
6:30 pm75 °FPassing clouds.16 mph78%29.92 "HgN/A
6:00 pm77 °FPartly sunny.20 mph69%29.92 "HgN/A
5:30 pm79 °FPassing clouds.16 mph65%29.92 "HgN/A
5:00 pm79 °FSunny.17 mph65%29.89 "Hg10 mi
4:30 pm79 °FPartly sunny.16 mph61%29.89 "HgN/A
4:00 pm81 °FPartly sunny.15 mph58%29.89 "HgN/A
3:30 pm81 °FPartly sunny.15 mph54%29.89 "HgN/A
3:00 pm81 °FOvercast.16 mph58%29.89 "HgN/A
2:30 pm81 °FPartly sunny.17 mph54%29.89 "HgN/A
2:00 pm81 °FScattered clouds.17 mph54%29.89 "HgN/A
1:30 pm82 °FPassing clouds.17 mph55%29.89 "HgN/A
1:00 pm82 °FPassing clouds.17 mph51%29.89 "HgN/A
12:30 pm82 °FPassing clouds.18 mph51%29.92 "HgN/A
12:00 pm82 °FSunny.16 mph55%29.92 "Hg10 mi
11:30 am81 °FScattered clouds.17 mph62%29.95 "HgN/A
11:00 am79 °FScattered clouds.16 mph65%29.95 "HgN/A
10:30 am81 °FPassing clouds.14 mph58%29.95 "HgN/A
10:00 am82 °FPartly sunny.8 mph55%29.95 "HgN/A
9:30 am81 °FScattered clouds.8 mph58%29.95 "HgN/A
9:00 am79 °FPartly sunny.2 mph61%29.95 "HgN/A
8:30 am77 °FSunny.3 mph65%29.95 "Hg10 mi
8:00 am77 °FSunny.2 mph65%29.98 "Hg10 mi
7:30 am73 °FSunny.No wind65%29.98 "Hg10 mi
7:00 am72 °FSunny.No wind69%29.98 "Hg10 mi
Weather by CustomWeather, © 2016

See weather overviewHow to use our weather pages